Time,TemperatureF,DewpointF,PressureIn,WindDirection,WindDirectionDegrees,WindSpeedMPH,WindSpeedGustMPH,Humidity,HourlyPrecipIn,Conditions,Clouds,dailyrainin,SoftwareType,DateUTC
2013-01-06 00:07:00,34.6,31.0,30.01,SSW,210,9.0,16.0,86,0.00,,,0.00,weatherlink.com 1.10,2013-01-06 06:07:00,
2013-01-06 00:22:00,34.6,31.0,30.00,SW,220,13.0,16.0,87,0.00,,,0.00,weatherlink.com 1.10,2013-01-06 06:22:00,
2013-01-06 00:37:00,34.6,31.0,30.00,SW,223,11.0,16.0,86,0.00,,,0.00,weatherlink.com 1.10,2013-01-06 06:37:00,
2013-01-06 00:52:00,34.6,31.0,30.00,SW,227,10.0,14.0,86,0.00,,,0.00,weatherlink.com 1.10,2013-01-06 06:52:00,
2013-01-06 01:07:00,34.6,31.0,29.99,SW,219,11.0,15.0,87,0.00,,,0.00,weatherlink.com 1.10,2013-01-06 07:07:00,
2013-01-06 01:22:00,34.8,31.0,29.99,SW,227,10.0,13.0,86,0.00,,,0.00,weatherlink.com 1.10,2013-01-06 07:22:00,
2013-01-06 01:37:00,35.0,31.0,29.99,SW,222,9.0,14.0,86,0.00,,,0.00,weatherlink.com 1.10,2013-01-06 07:37:00,
2013-01-06 01:52:00,35.1,31.0,29.99,SW,230,8.0,13.0,86,0.00,,,0.00,weatherlink.com 1.10,2013-01-06 07:52:00,
2013-01-06 02:07:00,35.3,31.0,29.99,WSW,237,8.0,13.0,85,0.00,,,0.00,weatherlink.com 1.10,2013-01-06 08:07:00,
2013-01-06 02:22:00,35.5,31.0,29.98,WSW,237,12.0,15.0,84,0.00,,,0.00,weatherlink.com 1.10,2013-01-06 08:22:00,
2013-01-06 02:37:00,35.7,31.0,29.98,WSW,238,10.0,15.0,84,0.00,,,0.00,weatherlink.com 1.10,2013-01-06 08:37:00,
2013-01-06 02:52:00,35.7,31.0,29.98,WSW,241,11.0,17.0,84,0.00,,,0.00,weatherlink.com 1.10,2013-01-06 08:52:00,
2013-01-06 03:07:00,35.5,31.0,29.98,SW,233,10.0,15.0,85,0.00,,,0.00,weatherlink.com 1.10,2013-01-06 09:07:00,
2013-01-06 03:22:00,35.5,31.0,29.98,SW,236,9.0,14.0,85,0.00,,,0.00,weatherlink.com 1.10,2013-01-06 09:22:00,
2013-01-06 03:37:00,35.5,31.0,29.98,WSW,244,8.0,14.0,85,0.00,,,0.00,weatherlink.com 1.10,2013-01-06 09:37:00,
2013-01-06 03:52:00,35.5,31.0,29.97,WSW,253,11.0,13.0,85,0.00,,,0.00,weatherlink.com 1.10,2013-01-06 09:52:00,
2013-01-06 04:07:00,35.5,31.0,29.97,WSW,244,9.0,15.0,85,0.00,,,0.00,weatherlink.com 1.10,2013-01-06 10:07:00,
2013-01-06 04:22:00,35.4,31.0,29.96,SW,229,8.0,14.0,85,0.00,,,0.00,weatherlink.com 1.10,2013-01-06 10:22:00,
2013-01-06 04:37:00,35.3,32.0,29.96,WSW,248,13.0,15.0,86,0.00,,,0.00,weatherlink.com 1.10,2013-01-06 10:37:00,
2013-01-06 04:52:00,35.2,31.0,29.96,WSW,243,13.0,15.0,86,0.00,,,0.00,weatherlink.com 1.10,2013-01-06 10:52:00,
2013-01-06 05:07:00,35.1,32.0,29.96,West,261,9.0,14.0,87,0.00,,,0.00,weatherlink.com 1.10,2013-01-06 11:07:00,
2013-01-06 05:37:00,34.8,31.0,29.97,WSW,254,9.0,16.0,87,0.00,,,0.00,weatherlink.com 1.10,2013-01-06 11:37:00,
2013-01-06 05:52:00,34.1,30.0,29.98,WNW,295,5.0,17.0,85,0.00,,,0.00,weatherlink.com 1.10,2013-01-06 11:52:00,
2013-01-06 06:07:00,32.9,28.0,29.99,WNW,288,5.0,26.0,81,0.00,,,0.00,weatherlink.com 1.10,2013-01-06 12:07:00,
2013-01-06 06:22:00,31.2,26.0,30.00,West,281,10.0,17.0,81,0.00,,,0.00,weatherlink.com 1.10,2013-01-06 12:22:00,
2013-01-06 06:37:00,29.8,24.0,30.00,West,280,6.0,21.0,80,0.00,,,0.00,weatherlink.com 1.10,2013-01-06 12:37:00,
2013-01-06 06:52:00,28.9,24.0,30.02,West,273,8.0,21.0,81,0.00,,,0.00,weatherlink.com 1.10,2013-01-06 12:52:00,
2013-01-06 07:07:00,28.3,23.0,30.02,West,280,2.0,15.0,81,0.00,,,0.00,weatherlink.com 1.10,2013-01-06 13:07:00,
2013-01-06 07:23:00,27.8,23.0,30.03,WNW,284,8.0,17.0,82,0.00,,,0.00,weatherlink.com 1.10,2013-01-06 13:23:00,
2013-01-06 07:38:00,27.5,23.0,30.03,West,265,4.0,16.0,82,0.00,,,0.00,weatherlink.com 1.10,2013-01-06 13:38:00,
2013-01-06 07:53:00,27.5,23.0,30.03,WNW,291,5.0,15.0,82,0.00,,,0.00,weatherlink.com 1.10,2013-01-06 13:53:00,
2013-01-06 08:08:00,27.2,22.0,30.04,WSW,240,5.0,17.0,81,0.00,,,0.00,weatherlink.com 1.10,2013-01-06 14:08:00,
2013-01-06 08:23:00,26.6,22.0,30.05,West,268,9.0,16.0,81,0.00,,,0.00,weatherlink.com 1.10,2013-01-06 14:23:00,
2013-01-06 08:38:00,25.7,20.0,30.06,WNW,284,5.0,16.0,80,0.00,,,0.00,weatherlink.com 1.10,2013-01-06 14:38:00,
2013-01-06 08:53:00,24.8,20.0,30.07,WNW,294,5.0,15.0,81,0.00,,,0.00,weatherlink.com 1.10,2013-01-06 14:53:00,
2013-01-06 09:08:00,24.6,20.0,30.07,West,280,5.0,14.0,81,0.00,,,0.00,weatherlink.com 1.10,2013-01-06 15:08:00,
2013-01-06 09:23:00,24.3,19.0,30.08,West,280,7.0,12.0,81,0.00,,,0.00,weatherlink.com 1.10,2013-01-06 15:23:00,
2013-01-06 09:38:00,24.3,19.0,30.09,NW,311,9.0,17.0,80,0.00,,,0.00,weatherlink.com 1.10,2013-01-06 15:38:00,
2013-01-06 09:53:00,24.2,19.0,30.09,WSW,243,1.0,11.0,82,0.00,,,0.00,weatherlink.com 1.10,2013-01-06 15:53:00,
2013-01-06 10:08:00,24.7,20.0,30.10,NNW,334,1.0,10.0,81,0.00,,,0.00,weatherlink.com 1.10,2013-01-06 16:08:00,
2013-01-06 10:23:00,24.4,19.0,30.10,NW,317,13.0,15.0,80,0.00,,,0.00,weatherlink.com 1.10,2013-01-06 16:23:00,
2013-01-06 10:38:00,25.3,20.0,30.10,NNW,330,9.0,12.0,80,0.00,,,0.00,weatherlink.com 1.10,2013-01-06 16:38:00,
2013-01-06 10:53:00,25.6,20.0,30.11,NW,318,6.0,13.0,79,0.00,,,0.00,weatherlink.com 1.10,2013-01-06 16:53:00,
2013-01-06 11:08:00,26.1,20.0,30.10,WNW,291,5.0,13.0,79,0.00,,,0.00,weatherlink.com 1.10,2013-01-06 17:08:00,
2013-01-06 11:23:00,26.6,21.0,30.11,NW,306,6.0,13.0,78,0.00,,,0.00,weatherlink.com 1.10,2013-01-06 17:23:00,
2013-01-06 11:38:00,26.8,20.0,30.11,NW,309,4.0,13.0,76,0.00,,,0.00,weatherlink.com 1.10,2013-01-06 17:38:00,
2013-01-06 11:53:00,28.0,22.0,30.11,South,171,1.0,13.0,77,0.00,,,0.00,weatherlink.com 1.10,2013-01-06 17:53:00,
2013-01-06 12:08:00,27.9,22.0,30.11,NW,315,6.0,13.0,77,0.00,,,0.00,weatherlink.com 1.10,2013-01-06 18:08:00,
2013-01-06 12:23:00,29.2,23.0,30.11,West,277,11.0,12.0,76,0.00,,,0.00,weatherlink.com 1.10,2013-01-06 18:23:00,
2013-01-06 12:38:00,28.5,22.0,30.10,WNW,297,3.0,14.0,76,0.00,,,0.00,weatherlink.com 1.10,2013-01-06 18:38:00,
2013-01-06 12:53:00,29.6,23.0,30.11,WNW,286,9.0,14.0,75,0.00,,,0.00,weatherlink.com 1.10,2013-01-06 18:53:00,
2013-01-06 13:08:00,30.4,24.0,30.11,WNW,294,4.0,15.0,76,0.00,,,0.00,weatherlink.com 1.10,2013-01-06 19:08:00,
2013-01-06 13:23:00,31.1,24.0,30.12,NW,313,3.0,14.0,74,0.00,,,0.00,weatherlink.com 1.10,2013-01-06 19:23:00,
2013-01-06 13:38:00,31.0,24.0,30.13,WNW,284,1.0,10.0,75,0.00,,,0.00,weatherlink.com 1.10,2013-01-06 19:38:00,
2013-01-06 13:53:00,31.1,24.0,30.14,NW,311,6.0,10.0,76,0.00,,,0.00,weatherlink.com 1.10,2013-01-06 19:53:00,
2013-01-06 14:23:00,31.7,25.0,30.16,NW,318,8.0,13.0,76,0.00,,,0.00,weatherlink.com 1.10,2013-01-06 20:23:00,
2013-01-06 14:38:00,32.1,25.0,30.17,NNE,24,6.0,14.0,76,0.00,,,0.00,weatherlink.com 1.10,2013-01-06 20:38:00,
2013-01-06 14:54:00,32.4,25.0,30.18,NNE,14,5.0,13.0,75,0.00,,,0.00,weatherlink.com 1.10,2013-01-06 20:54:00,
2013-01-06 15:08:00,33.0,26.0,30.19,WNW,291,7.0,12.0,74,0.00,,,0.00,weatherlink.com 1.10,2013-01-06 21:08:00,
2013-01-06 15:24:00,32.2,25.0,30.20,NW,318,1.0,11.0,75,0.00,,,0.00,weatherlink.com 1.10,2013-01-06 21:24:00,
2013-01-06 15:39:00,31.8,25.0,30.21,WNW,292,3.0,8.0,76,0.00,,,0.00,weatherlink.com 1.10,2013-01-06 21:39:00,
2013-01-06 15:54:00,31.3,25.0,30.21,WNW,292,2.0,9.0,77,0.00,,,0.00,weatherlink.com 1.10,2013-01-06 21:54:00,
2013-01-06 16:09:00,31.1,25.0,30.22,West,273,2.0,7.0,78,0.00,,,0.00,weatherlink.com 1.10,2013-01-06 22:09:00,
2013-01-06 16:24:00,31.1,25.0,30.23,WNW,295,0.0,8.0,78,0.00,,,0.00,weatherlink.com 1.10,2013-01-06 22:24:00,
2013-01-06 16:39:00,30.5,24.0,30.23,WNW,288,0.0,7.0,78,0.00,,,0.00,weatherlink.com 1.10,2013-01-06 22:39:00,
2013-01-06 16:54:00,29.6,24.0,30.24,WSW,250,3.0,4.0,79,0.00,,,0.00,weatherlink.com 1.10,2013-01-06 22:54:00,
2013-01-06 17:09:00,28.9,23.0,30.25,WNW,288,1.0,5.0,80,0.00,,,0.00,weatherlink.com 1.10,2013-01-06 23:09:00,
2013-01-06 17:24:00,28.4,23.0,30.26,WNW,284,2.0,6.0,81,0.00,,,0.00,weatherlink.com 1.10,2013-01-06 23:24:00,
2013-01-06 17:39:00,28.4,23.0,30.27,WNW,302,2.0,4.0,81,0.00,,,0.00,weatherlink.com 1.10,2013-01-06 23:39:00,
2013-01-06 17:54:00,28.5,24.0,30.28,West,272,0.0,4.0,82,0.00,,,0.00,weatherlink.com 1.10,2013-01-06 23:54:00,
2013-01-06 18:09:00,28.8,24.0,30.30,West,279,3.0,5.0,81,0.00,,,0.00,weatherlink.com 1.10,2013-01-07 00:09:00,
2013-01-06 18:24:00,28.8,24.0,30.30,WNW,297,0.0,5.0,82,0.00,,,0.00,weatherlink.com 1.10,2013-01-07 00:24:00,
2013-01-06 18:39:00,28.4,23.0,30.31,WSW,254,1.0,4.0,81,0.00,,,0.00,weatherlink.com 1.10,2013-01-07 00:39:00,
2013-01-06 18:54:00,28.1,23.0,30.31,WNW,291,1.0,3.0,82,0.00,,,0.00,weatherlink.com 1.10,2013-01-07 00:54:00,
2013-01-06 19:09:00,27.1,22.0,30.32,WNW,293,1.0,3.0,82,0.00,,,0.00,weatherlink.com 1.10,2013-01-07 01:09:00,
2013-01-06 19:24:00,26.1,22.0,30.32,WNW,302,0.0,2.0,83,0.00,,,0.00,weatherlink.com 1.10,2013-01-07 01:24:00,
2013-01-06 19:39:00,24.7,20.0,30.32,WNW,286,0.0,2.0,82,0.00,,,0.00,weatherlink.com 1.10,2013-01-07 01:39:00,
2013-01-06 19:54:00,23.3,19.0,30.33,West,281,1.0,3.0,84,0.00,,,0.00,weatherlink.com 1.10,2013-01-07 01:54:00,
2013-01-06 20:09:00,22.6,19.0,30.33,West,261,1.0,4.0,87,0.00,,,0.00,weatherlink.com 1.10,2013-01-07 02:09:00,
2013-01-06 20:24:00,21.7,18.0,30.34,West,259,1.0,4.0,85,0.00,,,0.00,weatherlink.com 1.10,2013-01-07 02:24:00,
2013-01-06 20:39:00,21.6,18.0,30.35,West,279,1.0,3.0,87,0.00,,,0.00,weatherlink.com 1.10,2013-01-07 02:39:00,
2013-01-06 20:54:00,21.3,18.0,30.35,WSW,250,1.0,4.0,86,0.00,,,0.00,weatherlink.com 1.10,2013-01-07 02:54:00,
2013-01-06 21:09:00,19.7,16.0,30.35,West,267,1.0,5.0,86,0.00,,,0.00,weatherlink.com 1.10,2013-01-07 03:09:00,
2013-01-06 21:24:00,18.9,16.0,30.35,WSW,254,0.0,3.0,87,0.00,,,0.00,weatherlink.com 1.10,2013-01-07 03:24:00,
2013-01-06 21:39:00,19.2,17.0,30.35,WSW,255,2.0,3.0,89,0.00,,,0.00,weatherlink.com 1.10,2013-01-07 03:39:00,
2013-01-06 21:54:00,19.0,16.0,30.35,WSW,254,0.0,2.0,89,0.00,,,0.00,weatherlink.com 1.10,2013-01-07 03:54:00,
2013-01-06 22:09:00,19.2,17.0,30.35,WSW,255,0.0,1.0,89,0.00,,,0.00,weatherlink.com 1.10,2013-01-07 04:09:00,
2013-01-06 22:24:00,17.1,14.0,30.35,WSW,255,2.0,2.0,87,0.00,,,0.00,weatherlink.com 1.10,2013-01-07 04:24:00,
2013-01-06 22:39:00,16.0,13.0,30.36,WSW,254,1.0,2.0,88,0.00,,,0.00,weatherlink.com 1.10,2013-01-07 04:39:00,
2013-01-06 22:55:00,16.5,14.0,30.36,WSW,255,2.0,2.0,90,0.00,,,0.00,weatherlink.com 1.10,2013-01-07 04:55:00,
2013-01-06 23:25:00,15.2,13.0,30.36,WSW,254,0.0,1.0,89,0.00,,,0.00,weatherlink.com 1.10,2013-01-07 05:25:00,
2013-01-06 23:40:00,15.6,13.0,30.36,WSW,254,1.0,2.0,90,0.00,,,0.00,weatherlink.com 1.10,2013-01-07 05:40:00,
2013-01-06 23:55:00,15.5,13.0,30.35,WSW,254,0.0,2.0,89,0.00,,,0.00,weatherlink.com 1.10,2013-01-07 05:55:00,